Lid_Strength_Index
13 13 13 14 13 13 14 15 16 15 15 13 13 12 11 11 10 10 10 10 11 11 12 12 11 11 11 10 10 10 10 10 10 9 10 10 10 10 9 9 9 8 8 7
15 13 13 14 13 13 13 14 15 14 14 13 12 13 12 11 10 11 11 10 11 11 11 11 11 11 11 11 10 10 10 10 9 10 10 10 9 9 9 9 8 8 8 8
16 13 13 15 13 13 13 13 13 16 14 13 13 11 11 11 11 11 11 12 12 11 11 11 11 10 11 10 10 10 10 9 9 10 9 9 8 8 8 8 8 8 8 8
17 15 19 14 12 12 12 12 12 12 12 11 11 12 12 12 11 12 12 12 12 11 11 11 11 11 10 10 10 9 9 9 9 9 8 8 8 8 8 8 8 9 8 8
18 18 15 14 13 14 13 14 11 12 11 11 11 12 13 11 11 12 12 12 11 11 11 11 11 10 10 10 9 9 9 8 8 8 8 7 8 8 8 9 9 9 8 8
17 19 20 15 13 12 14 18 12 10 11 11 12 15 14 12 11 11 11 11 11 11 11 11 10 10 10 9 9 8 8 7 7 7 7 7 7 8 9 8 8 8 8 8
17 19 16 13 12 12 19 17 12 11 11 11 12 13 12 11 12 11 11 11 11 11 11 10 10 10 9 9 8 7 6 6 6 6 7 7 8 9 9 9 9 9 9 8
18 19 18 12 12 15 14 12 11 11 11 11 12 12 12 11 11 11 11 11 11 11 11 10 9 9 8 8 6 6 6 6 7 7 6 6 8 9 9 10 10 9 8 8
15 15 12 12 13 12 10 11 12 11 11 11 12 12 12 12 12 12 12 11 10 11 10 9 8 8 8 7 6 6 7 7 7 7 7 8 9 9 10 9 10 9 8 9
14 13 12 11 11 10 10 10 10 10 11 11 12 12 12 12 13 12 11 11 10 10 10 9 8 7 6 6 5 6 7 7 7 7 6 9 9 9 10 10 9 8 8 9
15 14 13 11 11 10 10 10 10 11 11 12 12 12 13 13 12 11 11 10 10 10 9 8 7 6 5 5 5 6 7 7 7 7 8 9 9 9 8 8 7 9 9 9
14 13 13 13 11 10 10 10 11 12 12 12 12 13 12 12 11 11 11 10 10 9 8 7 6 6 5 5 5 6 7 7 7 8 9 9 9 9 6 6 6 6 7 8
12 12 11 11 10 10 11 11 11 12 12 13 12 12 12 11 11 9 10 10 9 8 7 6 6 5 5 4 5 6 8 7 8 8 9 9 9 10 10 8 7 7 7 7
11 11 12 11 11 10 10 11 10 12 12 12 12 11 11 11 11 10 10 9 8 7 7 6 5 5 5 5 6 6 7 5 8 9 9 9 9 10 10 10 12 11 9 8
11 12 11 11 11 11 11 12 13 14 13 13 12 11 11 11 11 11 9 7 7 7 7 6 5 5 4 4 6 7 7 7 8 9 9 8 9 10 9 11 11 11 11 10
12 12 11 12 12 12 13 14 14 14 13 13 12 12 12 11 10 10 8 7 8 8 7 6 4 4 4 5 7 7 7 5 7 9 10 10 10 10 11 11 12 12 12 11
12 13 13 13 13 14 14 14 13 13 13 12 13 12 11 11 11 10 8 7 7 7 6 6 6 5 5 6 7 7 8 9 7 10 10 10 10 11 12 11 13 13 12 11
12 11 11 11 13 14 14 13 13 13 13 12 12 11 11 11 11 9 8 7 7 7 7 6 5 5 6 6 5 7 9 9 10 9 9 11 10 11 11 12 12 13 12 11
11 12 12 12 13 13 14 14 13 13 12 12 12 11 11 11 10 9 8 8 8 8 7 5 4 6 6 4 6 9 9 10 10 9 10 10 11 12 12 12 12 12 12 11
12 12 12 12 13 13 14 13 12 12 12 12 11 11 12 11 10 9 9 8 7 5 5 5 6 6 6 6 6 9 9 10 11 10 11 12 12 12 12 12 12 12 12 11
13 12 13 13 14 13 12 12 12 13 12 11 12 13 12 11 10 9 10 9 7 4 4 5 5 5 6 7 8 9 10 11 12 12 13 12 12 12 13 12 12 12 12 11
12 13 13 13 13 14 13 12 12 12 12 12 12 12 12 11 10 10 9 8 5 4 5 5 4 4 6 7 9 10 10 11 13 13 13 12 12 13 13 12 12 12 12 12
13 13 13 13 13 13 13 13 12 12 12 12 12 12 12 11 11 11 11 6 5 4 5 4 4 4 6 10 10 10 11 13 13 13 13 12 12 12 12 12 12 12 12 12
14 14 14 13 13 13 14 13 12 12 12 11 11 11 12 12 11 9 6 5 4 5 4 5 5 5 7 10 11 11 13 13 13 13 13 12 13 12 12 12 12 12 12 12
14 14 14 13 14 14 13 13 13 13 12 13 12 12 11 8 10 7 6 5 5 6 6 5 6 7 10 10 11 13 13 14 13 13 13 13 13 13 12 12 12 12 12 12
14 13 13 13 13 13 13 13 14 14 14 14 14 12 10 8 6 7 6 6 6 6 8 9 9 10 11 11 12 13 14 14 14 14 13 14 13 13 13 12 12 12 12 12
13 12 13 14 13 13 13 13 14 14 13 14 14 13 10 7 6 7 7 7 7 8 10 10 10 9 10 11 13 13 14 14 13 13 14 14 13 13 12 12 12 12 12 12